Location: Kerberlivit
(48.2787°N, 4.5413°W)
Time: 19:28:41
(UTC+00:00)

Cosmos 1484 Rocket - Pass Details

Date: 18 February 2020
Orbit: 506 x 559 km, 97.4° (Epoch: 03 April)

Event Time Altitude Azimuth Distance (km) Brightness Sun altitude
Rises 06:35:27 0° 358° (N) 2,713 6.2 -8.2°
Reaches altitude 10° 06:38:09 10° 338° (NNW) 1,825 5.2 -7.8°
Maximum altitude 06:40:42 17° 297° (WNW) 1,440 4.4 -7.4°
Drops below altitude 10° 06:43:16 10° 257° (WSW) 1,833 4.9 -6.9°
Sets 06:45:59 0° 237° (WSW) 2,729 5.9 -6.5°
